Weather History for KHRL - April, 2013

Change the Weather History Date:

Friday, April 26, 2013

  Actual Average Record
Temperature  
Mean Temperature 76 °F 77 °F  
Max Temperature 89 °F 87 °F 99 °F (1961)
Min Temperature 62 °F 67 °F 47 °F (1913)
Degree Days  
Heating Degree Days 0 0  
Month to date heating degree days 10 7  
Since 1 July heating degree days 401 621  
Cooling Degree Days 11 12  
Month to date cooling degree days 242 267  
Year to date cooling degree days 597 562  
Growing Degree Days 26 (Base 50)    
Moisture  
Dew Point 66 °F    
Average Humidity 74    
Maximum Humidity 100    
Minimum Humidity 47    
Precipitation  
Precipitation 0.00 in 0.05 in 2.35 in (1992)
Month to date precipitation 0.10 1.45  
Year to date precipitation 2.90 5.21  
Sea Level Pressure  
Sea Level Pressure 30.07 in    
Wind  
Wind Speed 13 mph (SSE)    
Max Wind Speed 26 mph    
Max Gust Speed 32 mph    
Visibility 6 miles    
Events Fog    
T = Trace of Precipitation, MM = Missing Value Source: NWS Daily Summary

Daily Weather History Graph

Daily Weather History Graph

Search for Another Location

Airport or City:

Trip Planner

Search our weather history database for the weather conditions in past years. The results will help you decide how hot, cold, wet, or windy it might be!

Date:

Astronomy

Apr. 26, 2013 Rise Set
Actual Time 6:57 AM CDT 8:00 PM CDT
Civil Twilight 6:32 AM CDT 8:24 PM CDT
Nautical Twilight 6:04 AM CDT 8:52 PM CDT
Astronomical Twilight 5:35 AM CDT 9:22 PM CDT
Moon 9:16 PM CDT 7:30 AM CDT
Length of Visible Light 13h 51m
Length of Day
13h 03m
Full, 99% of the Moon is Illuminated
Apr 26
Full
May 2
Last Quarter
May 9
New
May 17
First Quarter
May 24
Full

Hourly Weather History & Observations

Time (CDT) Temp. Heat Index Dew Point Humidity Pressure Visibility Wind Dir Wind Speed Gust Speed Precip Events Conditions
12:52 AM 62.1 °F - 61.0 °F 96% 30.15 in 4.0 mi NNW 4.6 mph - N/A   Overcast
1:34 AM 62.6 °F - 60.8 °F 94% 30.14 in 1.8 mi West 6.9 mph - N/A   Overcast
1:52 AM 62.1 °F - 61.0 °F 96% 30.14 in 1.8 mi West 3.5 mph - N/A   Overcast
1:59 AM 62.6 °F - 60.8 °F 94% 30.13 in 2.0 mi West 3.5 mph - N/A   Overcast
2:22 AM 62.6 °F - 60.8 °F 94% 30.13 in 1.8 mi NNW 3.5 mph - N/A   Overcast
2:52 AM 62.1 °F - 61.0 °F 96% 30.12 in 1.0 mi WNW 5.8 mph - N/A   Overcast
3:09 AM 62.6 °F - 60.8 °F 94% 30.11 in 0.8 mi WSW 4.6 mph - N/A   Mist
3:52 AM 62.1 °F - 61.0 °F 96% 30.09 in 0.5 mi Calm Calm - N/A Fog Fog
4:36 AM 62.6 °F - 60.8 °F 94% 30.07 in 0.2 mi SE 4.6 mph - N/A Fog Fog
4:52 AM 62.1 °F - 61.0 °F 96% 30.07 in 0.5 mi SSE 4.6 mph - N/A Fog Fog
5:31 AM 62.6 °F - 62.6 °F 100% 30.06 in 0.2 mi Calm Calm - N/A Fog Fog
5:52 AM 63.0 °F - 62.1 °F 97% 30.06 in 0.2 mi SSE 4.6 mph - N/A Fog Fog
6:11 AM 62.6 °F - 62.6 °F 100% 30.06 in 0.5 mi SSE 4.6 mph - N/A Fog Fog
6:52 AM 64.0 °F - 63.0 °F 96% 30.07 in 1.5 mi SE 4.6 mph - N/A   Overcast
7:52 AM 66.0 °F - 64.0 °F 93% 30.10 in 2.0 mi SE 4.6 mph - N/A   Overcast
8:08 AM 66.2 °F - 64.4 °F 94% 30.10 in 3.0 mi SSE 3.5 mph - N/A   Overcast
8:31 AM 66.2 °F - 64.4 °F 94% 30.10 in 3.0 mi ESE 4.6 mph - N/A   Overcast
8:39 AM 66.2 °F - 66.2 °F 100% 30.10 in 2.0 mi SE 5.8 mph - N/A   Overcast
8:52 AM 68.0 °F - 66.0 °F 93% 30.11 in 2.0 mi SSE 5.8 mph - N/A   Overcast
8:59 AM 68.0 °F - 66.2 °F 94% 30.10 in 3.0 mi SE 6.9 mph - N/A   Overcast
9:52 AM 72.0 °F - 68.0 °F 87% 30.11 in 6.0 mi SSE 10.4 mph - N/A   Overcast
10:52 AM 75.0 °F - 69.1 °F 82% 30.11 in 10.0 mi South 11.5 mph - N/A   Overcast
11:14 AM 78.8 °F - 69.8 °F 74% 30.10 in 10.0 mi SSE 13.8 mph - N/A   Overcast
11:52 AM 80.1 °F 82.9 °F 69.1 °F 69% 30.10 in 10.0 mi South 18.4 mph - N/A   Overcast
12:52 PM 84.9 °F 88.2 °F 68.0 °F 57% 30.05 in 10.0 mi SSE 20.7 mph - N/A   Mostly Cloudy
1:01 PM 87.8 °F 92.6 °F 69.8 °F 55% 30.05 in 10.0 mi South 21.9 mph 27.6 mph N/A   Mostly Cloudy
1:52 PM 88.0 °F 91.4 °F 68.0 °F 51% 30.04 in 10.0 mi SSE 23.0 mph 31.1 mph N/A   Mostly Cloudy
2:52 PM 88.0 °F 90.7 °F 66.9 °F 49% 30.02 in 10.0 mi SSE 21.9 mph 29.9 mph N/A   Mostly Cloudy
3:52 PM 88.0 °F 91.4 °F 68.0 °F 51% 30.00 in 10.0 mi SSE 23.0 mph 32.2 mph N/A   Mostly Cloudy
4:52 PM 89.1 °F 92.1 °F 66.9 °F 48% 29.99 in 10.0 mi SSE 23.0 mph 31.1 mph N/A   Scattered Clouds
5:52 PM 84.0 °F 87.0 °F 68.0 °F 58% 29.98 in 10.0 mi SSE 21.9 mph 28.8 mph N/A   Scattered Clouds
6:52 PM 81.0 °F 84.1 °F 69.1 °F 67% 29.99 in 10.0 mi SE 17.3 mph - N/A   Partly Cloudy
7:52 PM 78.1 °F - 69.1 °F 74% 30.02 in 10.0 mi SSE 15.0 mph - N/A   Mostly Cloudy
8:00 PM 77.0 °F - 69.8 °F 78% 30.02 in 10.0 mi SSE 12.7 mph - N/A   Scattered Clouds
8:52 PM 75.0 °F - 69.1 °F 82% 30.03 in 10.0 mi SSE 15.0 mph - N/A   Partly Cloudy
9:11 PM 75.2 °F - 69.8 °F 83% 30.03 in 10.0 mi SE 12.7 mph - N/A   Mostly Cloudy
9:52 PM 75.0 °F - 70.0 °F 84% 30.03 in 10.0 mi SE 18.4 mph - N/A   Overcast
10:14 PM 75.2 °F - 69.8 °F 83% 30.04 in 10.0 mi SE 17.3 mph 25.3 mph N/A   Overcast
10:52 PM 75.0 °F - 70.0 °F 84% 30.05 in 10.0 mi SE 17.3 mph - N/A   Overcast
11:52 PM 73.9 °F - 70.0 °F 87% 30.06 in 10.0 mi SSE 13.8 mph - N/A   Mostly Cloudy